Overview Statistics Trail Chart Weather Telemetry Raw packets
 

This is the latest recevied weather packets stored in our database for station/object N2ZVN. If no packets are shown the sender has not sent any weather packets the latest 10 day(s).

<< 87 88 89 90 91 92 93 >>
Time Temp. Humidity Pressure Rain* Wind** Luminosity Snow
1788061780 17.22° C 88% 1020.6 hPa 0 mm - 0 W/m² -
1788061476 17.22° C 88% 1020.9 hPa 0 mm - 0 W/m² -
1788061175 17.22° C 88% 1020.7 hPa 0 mm - 0 W/m² -
1788060871 17.22° C 89% 1020.6 hPa 0 mm - 0 W/m² -
1788060566 17.22° C 89% 1020.7 hPa 0 mm - 0 W/m² -
1788060265 17.22° C 88% 1020.8 hPa 0 mm - 0 W/m² -
1788059961 17.22° C 88% 1020.8 hPa 0 mm - 0 W/m² -
1788059656 17.22° C 88% 1020.6 hPa 0 mm - 0 W/m² -
1788059351 17.22° C 88% 1020.5 hPa 0 mm - 0 W/m² -
1788059047 17.22° C 87% 1020.7 hPa 0 mm - 0 W/m² -
1788058747 17.22° C 87% 1020.7 hPa 0 mm - 0 W/m² -
1788058446 17.22° C 87% 1020.6 hPa 0 mm - 0 W/m² -
1788058145 17.22° C 86% 1020.7 hPa 0 mm - 0 W/m² -
1788057841 17.22° C 87% 1020.9 hPa 0 mm - 0 W/m² -
1788057538 17.22° C 87% 1020.6 hPa 0 mm - 0 W/m² -
1788057237 17.22° C 86% 1020.9 hPa 0 mm - 0 W/m² -
1788056937 17.22° C 89% 1020.8 hPa 0 mm - 0 W/m² -
1788056632 17.22° C 88% 1020.8 hPa 0 mm - 0 W/m² -
1788056331 17.22° C 87% 1020.9 hPa 0 mm - 0 W/m² -
1788056027 17.22° C 85% 1020.9 hPa 0 mm - 0 W/m² -
1788055727 17.78° C 89% 1020.9 hPa 0 mm - 0 W/m² -
1788055421 17.78° C 87% 1020.9 hPa 0 mm - 0 W/m² -
1788055117 17.78° C 87% 1020.9 hPa 0 mm - 0 W/m² -
1788054812 17.78° C 89% 1020.9 hPa 0 mm - 0 W/m² -
1788054507 17.78° C 85% 1020.9 hPa 0 mm - 0 W/m² -

* Rain latest hour (hover to see other rain measurements)
** Current wind speed in m/s (hover to see current wind gust speed)